Content
SEND FEEDBACK

Daily
Averages
Monthly
Summary
United States of America

OMAK, WASHINGTON


Home > North America > United States > Washington
Elevation: 1305 feet     Latitude: 48 28N     Longitude: 119 31W

WEATHER
 
SELECT A DAY
Number of Records: 167,200;   Date Range: 2/17/98 - 10/19/14
 
SHARE

PRINT THIS DATA

[ ← Previous Day ]
WEATHER ALMANAC - JANUARY 31, 2013
[ Next Day → ]
[ °C ]   °F
Weather ElementAverageHighLow
Temperature24.7 °F34 °F (2:53 pm)17.1 °F (11:53 pm)
Dewpoint21.7 °F27 °F (2:53 pm)15.1 °F (11:53 pm)
Humidity88.3 %96 % (8:53 pm)75 % (2:53 pm)
Barometer30.29 in30.33 in (3:53 am)30.25 in (3:53 pm)
Wind Speed0.4 mph5.8 mph (8:53 pm)
Weather ElementAverage
Visibility9.2 mi
Wind DirectionNNE (28.2 °)

Weather ElementTotal
Precipitation---
Heating Degree Days39.5 (Base 65)
Averaged from 22 records on January 31, 2013
WEATHER CONDITIONS BREAKOUT
WIND DIRECTION BREAKOUT
WEATHER BY HOUR - JANUARY 31, 2013
[ °C ]   °F
Local TimeTemperatureDewpointHumidityBarometerVisibilityWind DirectionWind SpeedGust SpeedPrecipitationEventsConditions
1:53 AM24.1 °F21.0 °F88 %30.32 in10.0 miCalmPartly Cloudy
2:53 AM24.1 °F21.0 °F88 %30.32 in10.0 miCalmMostly Cloudy
3:53 AM24.1 °F21.0 °F88 %30.33 in10.0 miCalmOvercast
4:53 AM23.0 °F19.9 °F88 %30.33 in10.0 miCalmMostly Cloudy
5:53 AM19.0 °F17.1 °F92 %30.31 in10.0 miCalmClear
6:53 AM19.0 °F17.1 °F92 %30.32 in10.0 miCalmClear
7:53 AM19.9 °F18.0 °F92 %30.33 in9.0 miCalmClear
8:53 AM21.9 °F19.9 °F92 %30.33 in10.0 miCalmClear
9:53 AM25.0 °F23.0 °F92 %30.33 in7.0 miCalmClear
10:53 AM27.0 °F24.1 °F89 %30.33 in9.0 miWest (270°)3.5 mphScattered Clouds
11:53 AM28.0 °F25.0 °F88 %30.31 in8.0 miCalmMostly Cloudy
12:53 PM28.0 °F25.0 °F88 %30.29 in7.0 miCalmPartly Cloudy
1:53 PM32.0 °F26.1 °F79 %30.27 in9.0 miCalmScattered Clouds
2:53 PM34.0 °F27.0 °F75 %30.26 in10.0 miCalmOvercast
3:53 PM32.0 °F27.0 °F82 %30.25 in9.0 miCalmOvercast
4:53 PM32.0 °F27.0 °F82 %30.25 in10.0 miCalmOvercast
5:53 PM28.0 °F25.0 °F88 %30.25 in10.0 miCalmMostly Cloudy
6:53 PM24.1 °F21.9 °F91 %30.26 in10.0 miCalmPartly Cloudy
7:53 PM21.9 °F19.9 °F92 %30.25 in8.0 miCalmClear
8:53 PM19.9 °F19.0 °F96 %30.26 in8.0 miNorth (350°)5.8 mphPartly Cloudy
10:53 PM19.9 °F17.1 °F89 %30.27 in9.0 miCalmClear
11:53 PM17.1 °F15.1 °F92 %30.30 in10.0 miCalmClear
Hourly data recorded from KOMK, located miles away from Omak, Washington







STORIES FROM OUR PARTNERS